This demonstration page uses our WeatherBlox Daily Observations layout. Learn more.

40.92945, -100.16068

Hourly Observations for January 26, 2015

Temp ( °F °C ) Dew Point ( °F °C ) Humidity (%) Winds ( mph kmh ) Pressure ( in mb ) Visibility ( mi km ) Precip ( " mm )
12:15 am 00:15 Partly Cloudy 37 2.9 26 -3.6 63 63 Calm 30.12 1020 10 16.0934 N/A
12:35 am 00:35 Clear 37 3 25 -4.1 60 60 SW 5 7 30.09 1019 10 16.0934 N/A
12:55 am 00:55 Clear 37 2.5 24 -4.4 61 61 W 6 9 30.09 1019 10 16.0934 N/A
1:15 am 01:15 Clear 36 2.2 25 -4 64 64 Calm 30.09 1019 10 16.0934 N/A
1:35 am 01:35 Clear 34 0.9 25 -3.8 71 71 W 6 9 30.09 1019 10 16.0934 N/A
1:55 am 01:55 Clear 32 -0.2 24 -4.2 75 75 W 5 7 30.12 1020 10 16.0934 N/A
2:15 am 02:15 Clear 32 0 26 -3.1 80 80 W 3 6 30.12 1020 10 16.0934 N/A
2:35 am 02:35 Clear 32 0 26 -3.3 79 79 W 9 15 30.12 1020 10 16.0934 N/A
2:55 am 02:55 Clear 33 0.6 28 -2.3 81 81 W 10 17 30.09 1019 10 16.0934 N/A
3:15 am 03:15 Clear 38 3.1 31 -0.5 77 77 WNW 13 20 30.09 1019 10 16.0934 N/A
3:35 am 03:35 Clear 37 2.6 31 -0.5 80 80 WNW 15 24 30.09 1019 10 16.0934 N/A
3:55 am 03:55 Clear 35 1.9 31 -0.7 83 83 WNW 12 19 30.09 1019 10 16.0934 N/A
4:15 am 04:15 Clear 36 2.1 31 -0.4 84 84 WNW 14 22 30.09 1019 10 16.0934 N/A
4:35 am 04:35 Clear 37 2.5 32 -0.1 83 83 WNW 15 24 30.09 1019 10 16.0934 N/A
4:55 am 04:55 Clear 36 2.4 32 -0.1 84 84 WNW 14 22 30.09 1019 10 16.0934 N/A
5:15 am 05:15 Clear 37 2.6 32 -0.1 83 83 WNW 15 24 30.09 1019 10 16.0934 N/A
5:35 am 05:35 Clear 37 2.5 32 -0.2 83 83 WNW 12 19 30.09 1019 10 16.0934 N/A
5:55 am 05:55 Clear 37 2.9 32 -0.1 81 81 NW 10 17 30.09 1019 10 16.0934 N/A
6:15 am 06:15 Clear 36 2.1 32 -0.2 85 85 WNW 10 17 30.09 1019 10 16.0934 N/A
6:35 am 06:35 Clear 36 2 31 -0.3 85 85 WNW 12 19 30.09 1019 10 16.0934 N/A
6:55 am 06:55 Clear 36 2 31 -0.4 84 84 WNW 14 22 30.09 1019 10 16.0934 N/A
7:15 am 07:15 Clear 35 1.6 31 -0.4 87 87 WNW 15 24 30.09 1019 10 16.0934 N/A
7:35 am 07:35 Clear 35 1.6 31 -0.5 86 86 WNW 12 19 30.09 1019 10 16.0934 N/A
7:55 am 07:55 Sunny 36 2.1 31 -0.3 84 84 WNW 14 22 30.09 1019 10 16.0934 N/A
8:15 am 08:15 Sunny 37 2.5 32 -0.2 83 83 WNW 10 17 30.12 1020 10 16.0934 N/A
8:35 am 08:35 Sunny 38 3.1 32 0 80 80 WNW 15 24 30.12 1020 10 16.0934 N/A
8:55 am 08:55 Sunny 39 3.9 33 0.3 78 78 WNW 16 26 30.09 1019 10 16.0934 N/A
9:15 am 09:15 Sunny 41 4.8 33 0.6 75 75 WNW 16 26 30.09 1019 10 16.0934 N/A
9:35 am 09:35 Sunny 43 6.1 34 1 70 70 WNW 17 28 30.09 1019 10 16.0934 N/A
9:55 am 09:55 Sunny 46 7.6 34 1 63 63 WNW 22 35 30.06 1018 10 16.0934 N/A
10:15 am 10:15 Sunny 48 8.8 34 1.2 59 59 WNW 17 28 30.06 1018 10 16.0934 N/A
10:35 am 10:35 Sunny 50 10.1 34 1.2 54 54 WNW 20 31 30.06 1018 10 16.0934 N/A
10:55 am 10:55 Sunny 53 11.4 34 1.1 49 49 WNW 17 28 30.03 1017 10 16.0934 N/A
11:15 am 11:15 Sunny 54 12 34 1.2 48 48 WNW 17 28 30.06 1018 10 16.0934 N/A
11:35 am 11:35 Sunny 56 13.1 35 1.4 45 45 WNW 21 33 30.06 1018 10 16.0934 N/A
11:55 am 11:55 Sunny 57 14.1 35 1.5 43 43 WNW 20 31 30 1016 10 16.0934 N/A
12:15 pm 12:15 Sunny 60 15.7 35 1.4 38 38 NW 17 28 30 1016 10 16.0934 N/A
12:35 pm 12:35 Sunny 62 16.6 34 0.9 35 35 WNW 20 31 29.97 1015 10 16.0934 N/A
12:55 pm 12:55 Sunny 64 17.9 34 1.3 33 33 NW 15 24 29.97 1015 10 16.0934 N/A
1:15 pm 13:15 Sunny 67 19.3 32 0 27 27 NW 25 41 29.97 1015 10 16.0934 N/A
1:35 pm 13:35 Sunny 67 19.6 32 0 27 27 NW 23 37 29.97 1015 10 16.0934 N/A
1:55 pm 13:55 Sunny 67 19.6 31 -0.3 26 26 NW 25 41 29.97 1015 10 16.0934 N/A
2:15 pm 14:15 Sunny 68 20.2 32 0 26 26 NNW 22 35 29.97 1015 10 16.0934 N/A
2:35 pm 14:35 Sunny 69 20.3 31 -0.4 25 25 NNW 21 33 29.91 1013 10 16.0934 N/A
2:55 pm 14:55 Sunny 68 20.1 32 -0.1 26 26 NNW 18 30 29.97 1015 10 16.0934 N/A
3:15 pm 15:15 Sunny 68 20.1 32 -0.1 26 26 NNW 16 26 29.97 1015 10 16.0934 N/A
3:35 pm 15:35 Sunny 68 20.1 32 0 26 26 NNW 23 37 29.97 1015 10 16.0934 N/A
3:55 pm 15:55 Sunny 68 19.8 31 -0.5 26 26 NNW 21 33 29.97 1015 10 16.0934 N/A
4:15 pm 16:15 Sunny 67 19.4 32 -0.2 27 27 NNW 15 24 29.97 1015 10 16.0934 N/A
4:35 pm 16:35 Sunny 66 18.7 32 -0.2 28 28 NNW 12 19 29.97 1015 10 16.0934 N/A
4:55 pm 16:55 Sunny 64 17.8 32 0 30 30 NNW 9 15 29.97 1015 10 16.0934 N/A
5:15 pm 17:15 Sunny 60 15.8 32 -0.2 34 34 N 8 13 30 1016 10 16.0934 N/A
5:35 pm 17:35 Hazy 56 13.3 31 -0.6 39 39 N 8 13 30.03 1017 5 8.0467 N/A
5:55 pm 17:55 Clear 51 10.4 30 -1.3 44 44 NNW 10 17 30.06 1018 10 16.0934 N/A
6:15 pm 18:15 Clear 47 8.5 29 -1.5 50 50 NNW 9 15 30.06 1018 10 16.0934 N/A
6:35 pm 18:35 Clear 43 6.2 28 -2.2 55 55 NNW 5 7 30.09 1019 10 16.0934 N/A
6:55 pm 18:55 Clear 40 4.5 28 -2 63 63 NW 5 7 30.09 1019 10 16.0934 N/A
7:15 pm 19:15 Clear 42 5.5 30 -0.9 64 64 SW 6 9 30.09 1019 7 11.26538 N/A
7:35 pm 19:35 Clear 44 6.5 29 -1.5 57 57 WSW 3 6 30.09 1019 10 16.0934 N/A
7:55 pm 19:55 Clear 42 5.5 30 -1.2 62 62 W 5 7 30.09 1019 10 16.0934 N/A
8:15 pm 20:15 Clear 38 3.1 28 -2.1 69 69 W 7 11 30.12 1020 10 16.0934 N/A
8:35 pm 20:35 Clear 35 1.8 28 -2.4 74 74 W 6 9 30.12 1020 10 16.0934 N/A
8:55 pm 20:55 Clear 36 2.2 28 -2.4 72 72 W 6 9 30.12 1020 10 16.0934 N/A
9:15 pm 21:15 Clear 35 1.4 28 -2.5 76 76 W 5 7 30.12 1020 10 16.0934 N/A
9:35 pm 21:35 Clear 35 1.6 27 -2.7 73 73 WNW 5 7 30.12 1020 10 16.0934 N/A
9:55 pm 21:55 Clear 32 0 27 -3 80 80 WNW 6 9 30.15 1021 10 16.0934 N/A
10:15 pm 22:15 Clear 33 0.3 26 -3.1 78 78 NW 5 7 30.15 1021 10 16.0934 N/A
10:35 pm 22:35 Clear 32 0 27 -2.9 81 81 N 5 7 30.15 1021 10 16.0934 N/A
10:55 pm 22:55 Clear 32 0 27 -2.9 81 81 NW 3 6 30.15 1021 10 16.0934 N/A
11:15 pm 23:15 Clear 31 -0.6 26 -3.5 81 81 NW 5 7 30.15 1021 10 16.0934 N/A
11:35 pm 23:35 Clear 30 -1 26 -3.3 85 85 WNW 6 9 30.18 1022 10 16.0934 N/A
11:55 pm 23:55 Clear 30 -1.1 26 -3.6 83 83 N 3 6 30.18 1022 10 16.0934 N/A

Powered by AerisWeather